User: anonymous   Login
Location: Arroyo Grande
(40.2671°N, 4.2512°W)
Time: 23:59:01
(UTC+00:00)
Language:

Cosmos 1869 - Orbit

View from above orbital plane
View from above orbital plane
View from above satellite
View from above satellite

Ground track
Ground track

The orbit data is extracted from the following two-line orbital elements,

1 18214U 87062A   23150.44274694  .00004546  00000-0  25412-3 0  9996
2 18214  82.5179 132.1262 0029533  17.1750 343.0473 15.12874800934949
Epoch (UTC): 30 May 2023 10:37:33
Eccentricity: 0.0029533
inclination: 82.5179°
perigee height: 507 km
apogee height: 548 km
right ascension of ascending node: 132.1262°
argument of perigee: 17.1750°
revolutions per day: 15.12874800
mean anomaly at epoch: 343.0473°
orbit number at epoch: 93494

The dashed part of the orbit path shows where the satellite is in the earth's shadow,  

DLR